Location: Avebury
(53.1487°N, 106.9774°W)
Time: 14:43:13
(UTC+00:00)

Envisat - Pass Details

Date: 20 January 2022
Orbit: 764 x 765 km, 98.2° (Epoch: 22 May)

Event Time Altitude Azimuth Distance (km) Brightness Sun altitude
Rises 11:19:30 0° 21° (NNE) 3,244 6.6 -33.7°
Reaches altitude 10° 11:22:04 10° 31° (NNE) 2,313 5.9 -33.3°
Maximum altitude 11:26:36 32° 94° (E) 1,310 4.6 -32.7°
Drops below altitude 10° 11:31:06 10° 157° (SSE) 2,298 5.6 -32.0°
Sets 11:33:38 0° 167° (SSE) 3,219 6.3 -31.6°
